Hourly Data Report for September 30, 2018

SHEARWATER RCS
NOVA SCOTIA
Current Station Operator: ECCC - MSC

44°37'47.000" N
63°30'48.000" W
24.00 m
8205092
71264
AAW

Download Data

Hourly Data (September 2018)
Hourly Data Report for September 30, 2018
TIME
LST
Temp Definition
°C
Dew Point Definition
°C
Rel Hum Definition
%
Precip. Amount Definition
mm

Wind Dir Definition
10's deg

Wind Spd Definition
km/h
Visibility Definition
km
Stn Press Definition
kPa
Hmdx Definition


Wind Chill Definition


Weather Definition


00:00 10.4 9.3 93 0.0 32 4   101.87     LegendNANA
01:00 9.8 8.9 94 0.0 33 6   101.91     LegendNANA
02:00 10.3 9.4 94 0.0 33 11   101.94     LegendNANA
03:00 10.1 8.9 92 0.0 33 11   102.02     LegendNANA
04:00 9.6 7.7 88 0.0 36 12   102.10     LegendNANA
05:00 9.0 6.9 87 0.0 35 9   102.17     LegendNANA
06:00 8.2 6.5 89 0.0 3 6   102.21     LegendNANA
07:00 8.6 6.6 87 0.0 35 3   102.27     LegendNANA
08:00 10.8 6.6 75 0.0 3 8   102.31     LegendNANA
09:00 12.3 6.1 66 0.0 4 9   102.37     LegendNANA
10:00 14.0 5.5 56 0.0 3 9   102.40     LegendNANA
11:00 15.3 4.9 50 0.0 35 4   102.37     LegendNANA
12:00 16.0 4.9 48 0.0 33 6   102.35     LegendNANA
13:00 17.0 5.9 48 0.0 32 5   102.30     LegendNANA
14:00 17.4 4.3 42 0.0 25 9   102.28     LegendNANA
15:00 17.8 4.5 41 0.0 36 4   102.27     LegendNANA
16:00 16.8 7.8 56 0.0 19 12   102.23     LegendNANA
17:00 15.4 7.3 58 0.0 22 10   102.27     LegendNANA
18:00 13.2 7.7 69 0.0 14 5   102.29     LegendNANA
19:00 11.5 7.7 78 0.0 31 1   102.34     LegendNANA
20:00 11.2 8.2 82 0.0 0 1   102.34     LegendNANA
21:00 11.2 8.2 82 0.0 28 5   102.34     LegendNANA
22:00 12.2 8.5 78 0.0 28 4   102.31     LegendNANA
23:00 13.3 9.0 75 0.0 19 9   102.30     LegendNANA

Notes on Data Quality.

Legend

  • E = Estimated
  • M = Missing
  • NA = Not Available*
  • [empty] = Indicates an unobserved value
Date modified: